Evansville, IN

10:27 AM CDT on April 21, 2018 (GMT -0500)
Evansville Regional

Weather History for KEVV - July, 2013

Change the Weather History Date:

Friday, July 26, 2013

  Actual Average Record
Temperature  
Mean Temperature 71 °F 78 °F  
Max Temperature 83 °F 88 °F 108 °F (1930)
Min Temperature 59 °F 67 °F 53 °F (1962)
Degree Days  
Heating Degree Days 0 0  
Month to date heating degree days 0 0  
Since 1 June heating degree days 1 6  
Since 1 July heating degree days 0 0  
Cooling Degree Days 6 13  
Month to date cooling degree days 324 338  
Year to date cooling degree days 791 771  
Since 1 June cooling degree days 620 636  
Growing Degree Days 20 (Base 50)    
Moisture  
Dew Point 61 °F    
Average Humidity 71    
Maximum Humidity 97    
Minimum Humidity 45    
Precipitation  
Precipitation 0.02 in 0.12 in 1.42 in (1933)
Month to date precipitation 2.31 3.36  
Year to date precipitation 32.41 27.38  
Snow  
Snow 0.00 in 0.00 in - ()
Month to date snowfall 0.0 0.0  
Since 1 June snowfall 0.0 0.0  
Since 1 July snowfall 0.0 0.0  
Snow Depth 0.00 in    
Sea Level Pressure  
Sea Level Pressure 30.04 in    
Wind  
Wind Speed 4 mph (WSW)    
Max Wind Speed 13 mph    
Max Gust Speed 20 mph    
Visibility 10 miles    
Events Rain    
T = Trace of Precipitation, MM = Missing Value Source: NWS Daily Summary

Daily Weather History Graph

Daily Weather History Graph

Search for Another Location

Airport or City:

Astronomy

Jul. 26, 2013 Rise Set
Actual Time 5:48 AM CDT 8:04 PM CDT
Civil Twilight 5:18 AM CDT 8:34 PM CDT
Nautical Twilight 4:41 AM CDT 9:10 PM CDT
Astronomical Twilight 4:01 AM CDT 9:50 PM CDT
Moon 10:24 PM CDT (7/26) 10:18 AM CDT (7/26)
Length of Visible Light 15h 15m
Length of Day
14h 16m
Waning Gibbous, 80% of the Moon is Illuminated
Jul 26
Waning Gibbous
Jul 29
Last Quarter
Aug 6
New
Aug 14
First Quarter
Aug 20
Full

Hourly Weather History & Observations

Time (CDT) Temp. Heat Index Dew Point Humidity Pressure Visibility Wind Dir Wind Speed Gust Speed Precip Events Conditions
12:54 AM 62.1 °F - 59.0 °F 90% 30.08 in 10.0 mi Calm Calm - N/A   Clear
1:54 AM 62.1 °F - 59.0 °F 90% 30.07 in 10.0 mi Calm Calm - N/A   Clear
2:54 AM 60.1 °F - 57.9 °F 93% 30.07 in 10.0 mi Calm Calm - N/A   Clear
3:54 AM 61.0 °F - 57.9 °F 90% 30.05 in 10.0 mi Calm Calm - N/A   Clear
4:54 AM 60.1 °F - 57.9 °F 93% 30.05 in 10.0 mi Calm Calm - N/A   Clear
5:54 AM 60.1 °F - 57.0 °F 90% 30.06 in 10.0 mi Calm Calm - N/A   Clear
6:54 AM 61.0 °F - 59.0 °F 93% 30.07 in 9.0 mi Calm Calm - N/A   Clear
7:54 AM 69.1 °F - 62.1 °F 78% 30.07 in 10.0 mi Calm Calm - N/A   Clear
8:54 AM 72.0 °F - 61.0 °F 68% 30.08 in 10.0 mi Calm Calm - N/A   Clear
9:54 AM 75.9 °F - 59.0 °F 56% 30.07 in 10.0 mi WSW 5.8 mph - N/A   Clear
10:54 AM 79.0 °F - 59.0 °F 50% 30.07 in 10.0 mi WSW 8.1 mph - N/A   Clear
11:54 AM 80.1 °F 80.6 °F 57.9 °F 47% 30.06 in 10.0 mi Variable 4.6 mph - N/A   Clear
12:54 PM 80.1 °F 80.9 °F 60.1 °F 50% 30.05 in 10.0 mi WSW 6.9 mph - N/A   Partly Cloudy
1:54 PM 81.0 °F 81.3 °F 59.0 °F 47% 30.04 in 10.0 mi Variable 3.5 mph - N/A   Clear
2:54 PM 82.0 °F 82.4 °F 60.1 °F 47% 30.03 in 10.0 mi West 8.1 mph - N/A   Partly Cloudy
3:54 PM 80.1 °F 80.9 °F 60.1 °F 50% 30.03 in 10.0 mi WSW 5.8 mph - N/A   Partly Cloudy
4:54 PM 79.0 °F - 61.0 °F 54% 30.02 in 10.0 mi WSW 5.8 mph - N/A   Clear
5:54 PM 77.0 °F - 61.0 °F 58% 30.02 in 10.0 mi WSW 11.5 mph - N/A   Mostly Cloudy
6:54 PM 73.9 °F - 64.0 °F 71% 30.02 in 10.0 mi WSW 9.2 mph - 0.00 in Rain Light Rain
7:54 PM 71.1 °F - 66.0 °F 84% 30.01 in 10.0 mi WNW 5.8 mph - 0.00 in Rain Light Rain
8:54 PM 70.0 °F - 64.9 °F 84% 30.00 in 10.0 mi West 4.6 mph - 0.00 in Rain Light Rain
9:54 PM 70.0 °F - 64.9 °F 84% 30.00 in 10.0 mi West 3.5 mph - 0.00 in Rain Light Rain
10:54 PM 69.1 °F - 66.0 °F 90% 30.00 in 10.0 mi Calm Calm - 0.01 in Rain Light Rain
11:54 PM 69.1 °F - 66.0 °F 90% 29.99 in 10.0 mi Calm Calm - 0.01 in Rain Light Rain